IRIDIUM 151 (43074 NORAD) Tracking and Keplerian Element Data

This shows tracking and keplerian element data for the satellite.

Feedback or suggestion? Click here.




ElementValue
Catalog43074
NameIRIDIUM 151
Epoch Orbit33812
Epoch Day159.54184033
Epoch Year2024
RAAN271.1352
Inclination86.3962
Eccentricity0.0002363
Argument of Perigee89.4202
Mean Anonmoly270.7265
Mean Motion14.34219799
Decay Rate3.19E-06
L11 43074U 17083E 24159.54184033 .00000319 00000+0 10698-3 0 9995
L22 43074 86.3962 271.1352 0002363 89.4202 270.7265 14.34219799338129



Live tracking and technical data element details for IRIDIUM 151 (NORAD 43074). IRIDIUM 151 can be tracked NOW for your location showing map with azimuth and elevation plus other details from your city location.







IsCatalogInMostPopularTable: catalog: 43074, numindb: 704
Update: records affected: 1



GetName: 43074 IRIDIUM 151

Hit Count: updated at: Fri, 14 Jun 2024 18:49:13 GMT